Location: Jackson Park
(37.2862°N, 79.9123°W)
Time: 20:45:53
(UTC+00:00)

S-56A Canister/Altair - Pass Details

Date: 12 May 2026
Orbit: 633 x 2484 km, 38.9° (Epoch: 6 June)

Event Time Altitude Azimuth Distance (km) Brightness Sun altitude
Rises 06:09:45 0° 282° (WNW) 3,108 - -33.1°
Reaches altitude 10° 06:11:50 10° 282° (WNW) 2,302 - -33.0°
Maximum altitude 06:17:09 88° 197° (SSW) 956 - -32.7°
Exits shadow 06:20:33 33° 106° (ESE) 1,749 9.2 -32.5°
Drops below altitude 10° 06:25:00 10° 106° (ESE) 3,330 10.8 -32.2°
Sets 06:28:34 0° 106° (ESE) 4,610 11.6 -32.0°
